Wind_Speed
40 40 42 44 45 47 48 49 48 47 46 45 43 41 40 39 39 39 39 39 40 39 39 37 36 34 32 29 27 24 22 19 17 16 16 17 18 18 17 17 17 17 16 15 14 13 13 12 12 11 10 8 7 8 8 7 7 7 7 7 7 7 7
38 40 42 43 46 48 49 47 46 47 46 45 44 42 42 42 42 42 42 42 42 41 41 39 38 36 33 31 28 26 24 21 19 17 18 19 19 17 17 17 17 17 15 14 14 13 13 12 11 10 9 8 8 8 7 6 7 8 8 8 9 9 8
38 41 43 45 48 50 50 47 47 47 46 46 45 44 45 44 44 44 44 44 44 43 42 41 39 37 35 32 30 28 26 24 21 20 20 20 19 17 17 17 17 16 14 13 13 12 12 12 11 9 8 8 8 7 5 5 6 8 9 10 10 11 10
40 43 44 46 49 50 48 47 48 48 48 47 46 46 47 46 46 45 45 46 46 45 44 43 42 39 37 35 33 31 28 26 24 22 21 20 18 17 17 17 17 15 14 12 11 11 11 11 10 9 8 7 6 5 4 4 5 6 7 8 9 10 11
41 42 42 44 46 47 46 46 47 48 48 48 47 47 47 47 47 46 46 47 47 47 46 44 43 41 39 37 35 33 30 27 25 24 22 20 18 18 18 17 16 14 12 11 11 11 11 11 11 9 6 4 4 4 4 4 5 5 6 6 7 8 9
39 39 40 43 45 47 48 47 48 49 49 49 48 48 48 48 48 48 48 48 48 47 46 45 44 43 41 39 37 34 30 28 27 26 23 21 20 19 18 16 15 13 12 11 11 11 11 12 12 9 6 4 4 4 4 5 5 6 7 8 9 9 10
38 39 42 44 46 48 48 48 48 49 49 49 48 48 48 49 49 49 49 49 49 48 47 47 46 45 43 42 40 37 32 29 29 27 24 21 20 19 17 16 15 14 13 13 12 11 11 11 11 9 7 6 5 4 5 6 7 8 8 10 11 12 12
40 42 44 46 47 48 47 47 48 48 48 48 48 48 49 49 49 50 50 51 51 50 49 49 48 47 46 45 43 40 34 30 30 28 24 21 20 19 17 17 16 15 15 14 13 12 10 9 9 8 8 7 5 5 6 8 9 9 10 11 12 14 14
41 44 47 48 48 47 46 46 46 46 46 47 48 49 50 49 50 50 51 52 52 51 51 50 50 49 48 48 47 42 36 32 30 28 25 22 21 19 18 17 16 17 16 14 13 12 10 9 9 9 9 8 7 7 8 10 11 11 12 13 14 15 15
42 45 47 48 47 46 44 43 42 43 44 46 48 49 50 50 51 51 51 52 53 53 52 51 51 51 50 51 49 44 39 32 28 26 24 22 21 20 18 17 16 17 16 14 14 13 11 10 10 10 11 10 9 9 10 12 14 15 15 15 15 16 16
42 44 46 46 44 42 41 40 40 43 46 47 47 49 51 51 51 51 52 52 53 53 53 52 52 52 52 52 49 46 40 31 27 27 25 23 22 21 18 17 17 19 16 14 15 14 12 12 12 12 12 11 11 11 12 14 16 17 17 16 16 17 17
41 43 45 46 44 42 41 41 43 45 46 46 47 49 51 51 52 53 53 53 53 53 53 53 53 52 53 51 46 45 41 34 31 30 26 25 23 21 19 18 19 19 17 15 16 15 14 14 13 13 13 12 12 12 13 15 17 18 18 18 17 16 15
42 44 45 46 45 44 43 43 44 44 45 46 47 48 49 50 52 53 53 54 53 54 54 54 52 50 47 44 42 43 40 33 31 29 25 24 23 20 19 19 19 19 17 18 19 18 17 15 14 13 13 13 13 13 14 16 18 19 19 18 16 14 13
40 40 42 44 44 44 43 44 44 44 45 45 45 46 48 49 51 51 52 53 52 53 53 50 46 43 42 42 44 45 42 34 29 28 25 23 21 20 20 19 19 17 17 21 23 20 18 16 14 14 14 14 14 15 16 17 18 19 18 16 14 12 12
36 37 40 42 43 44 44 43 42 42 43 44 44 46 47 48 50 50 51 52 51 52 51 46 42 42 43 45 47 49 47 37 29 27 26 22 22 22 22 22 21 17 18 25 26 21 18 16 15 16 16 16 16 17 17 17 17 17 15 13 12 11 12
35 38 41 42 42 43 43 41 40 39 41 42 43 44 45 47 49 49 50 50 51 50 47 43 43 45 47 48 47 49 47 37 28 27 28 27 25 26 25 23 21 19 23 28 26 22 19 17 17 18 18 18 18 18 17 16 15 13 12 12 12 12 13
35 37 39 39 40 40 40 39 38 38 38 39 40 41 43 45 46 47 48 49 49 47 44 43 45 46 46 45 45 45 41 34 28 29 32 30 27 27 26 24 23 23 27 29 26 22 20 18 19 19 18 18 19 18 17 15 13 11 11 12 13 14 16
33 34 35 35 36 36 35 35 36 37 36 35 36 37 39 41 43 44 45 45 44 43 42 43 44 44 43 42 43 44 41 35 31 31 35 34 31 31 28 24 26 29 29 28 26 23 21 20 20 20 19 19 20 19 18 16 13 12 13 14 14 16 18
31 31 31 30 31 31 30 30 30 29 27 26 27 28 30 33 37 40 41 42 42 41 42 43 43 43 44 44 45 46 43 39 35 34 37 37 36 34 29 26 29 31 29 28 26 24 23 22 21 20 20 20 20 19 17 16 15 15 15 16 16 17 19
27 27 26 24 22 21 19 16 13 11 10 10 12 13 16 21 27 33 37 41 42 43 44 45 46 46 46 46 46 46 43 40 37 37 39 39 38 34 27 26 30 31 29 28 27 26 24 23 21 21 21 21 19 18 17 16 16 16 17 18 19 19 20
21 20 18 16 14 12 10 8 7 6 6 7 6 7 9 13 18 24 30 35 39 42 44 46 46 46 45 45 45 43 41 37 36 38 41 41 39 33 26 26 29 29 28 29 28 27 25 23 22 22 21 20 19 18 18 17 17 18 19 20 20 21 22
16 15 14 13 12 12 11 10 9 10 11 10 7 6 8 10 14 18 23 28 34 39 43 45 46 46 46 47 45 42 40 38 37 38 41 40 35 29 25 26 29 28 27 28 28 27 25 23 23 22 20 19 18 18 19 19 19 20 21 21 22 23 24
15 14 14 13 13 13 13 13 13 14 13 10 7 6 7 9 11 15 20 25 30 36 40 43 45 47 48 48 46 41 40 40 37 37 39 38 30 24 25 28 28 27 27 27 28 27 26 24 23 22 20 18 18 18 19 20 21 22 23 23 24 24 24
16 16 15 14 14 13 13 13 13 13 11 7 6 6 7 8 10 13 18 23 28 32 36 40 44 46 47 48 45 39 37 40 38 36 38 35 26 23 27 29 26 25 25 26 26 26 25 24 22 21 19 17 17 18 20 22 23 24 24 24 24 24 24
19 17 16 13 11 11 11 12 12 11 8 6 7 7 7 7 9 12 16 21 24 29 33 37 40 42 44 46 44 37 35 39 39 35 35 31 23 21 26 27 24 23 24 25 26 25 25 25 24 23 21 19 18 19 21 23 24 24 25 24 23 24 24
19 17 15 12 9 9 9 8 7 6 6 7 7 7 7 6 8 11 15 18 22 26 30 31 31 33 37 41 39 34 35 40 40 35 34 31 23 20 24 25 24 25 26 27 26 26 27 29 29 27 25 23 22 22 23 24 24 24 24 23 24 25 24
14 12 11 9 8 7 5 4 5 6 7 7 7 6 6 6 8 10 13 17 21 24 23 23 24 28 32 36 35 33 35 40 40 37 37 34 25 21 22 24 26 27 28 27 26 27 31 34 34 33 31 28 24 23 24 25 25 24 24 24 23 22 21
9 7 5 5 5 4 4 5 6 6 6 6 6 5 6 7 9 11 14 18 20 19 18 19 22 26 30 33 33 31 33 38 40 39 40 37 28 21 21 24 25 25 25 24 26 31 35 35 33 33 34 30 25 22 24 25 26 24 23 22 21 19 19
7 5 2 1 2 4 5 5 6 5 5 5 6 7 8 9 11 13 16 17 16 15 16 19 22 25 28 30 31 31 33 37 39 41 42 39 32 26 23 24 23 23 24 26 29 34 36 34 30 30 32 31 27 24 25 26 25 23 21 20 19 18 19
6 4 1 2 4 5 4 5 5 5 5 7 8 9 10 11 13 14 14 14 13 13 15 17 19 23 27 29 30 32 35 37 39 42 44 41 34 28 26 26 25 26 27 28 31 35 37 36 33 29 26 25 24 23 23 24 22 21 20 19 19 18 18
7 4 3 4 4 4 4 5 5 6 7 9 10 11 12 12 12 12 11 11 12 13 14 16 19 22 25 27 29 32 34 35 37 40 40 35 29 26 27 28 27 27 29 30 32 35 34 33 31 27 22 21 21 20 20 20 19 19 19 19 19 18 18
8 7 5 5 5 5 6 6 7 8 9 11 12 12 13 12 11 10 9 10 10 11 13 16 19 22 24 25 27 28 29 30 30 29 29 28 27 27 27 27 27 28 30 30 30 32 32 30 29 27 24 22 21 19 18 18 17 18 18 19 19 19 19
10 7 5 5 7 8 9 9 9 10 11 13 14 14 13 12 11 10 9 8 8 9 10 12 14 17 18 19 20 22 22 20 20 21 22 24 26 26 26 27 28 29 30 29 29 30 29 26 25 24 22 20 18 17 16 16 17 18 19 20 20 20 18
9 6 5 7 10 11 11 11 12 12 13 15 15 13 13 12 11 9 7 5 5 5 6 8 9 11 11 12 13 13 13 12 14 17 19 20 23 26 29 30 30 29 30 30 27 25 24 23 21 20 18 16 15 15 14 15 17 18 19 20 20 19 17
6 4 5 8 10 11 12 13 14 14 15 15 13 13 14 13 11 10 8 7 9 11 12 13 12 10 9 8 6 6 8 10 13 16 18 20 24 27 29 29 28 28 27 25 21 20 21 21 18 16 15 13 13 13 14 15 17 18 19 19 18 17 16
4 3 5 7 9 11 12 12 13 13 14 14 14 15 16 15 14 14 13 13 14 16 16 16 14 11 7 5 5 8 10 13 15 18 20 23 26 26 26 25 25 24 22 20 19 20 20 17 15 14 14 13 13 14 14 15 16 17 18 18 16 15 15
5 5 6 8 9 10 11 11 11 12 13 14 16 18 18 17 17 17 17 18 18 16 14 12 9 8 10 11 12 13 13 14 17 19 21 22 22 22 22 22 21 21 20 20 21 20 18 15 15 15 14 13 13 13 13 15 16 16 16 15 14 14 13
8 8 8 9 10 10 11 11 11 12 14 16 17 19 20 19 19 19 21 22 20 17 15 12 10 12 14 14 13 14 14 14 15 17 17 18 18 19 20 20 20 21 22 22 20 19 17 16 15 15 14 13 13 13 14 15 15 14 13 12 12 11 11
Wind_Direction
203 205 207 207 208 210 212 212 211 212 213 213 213 212 211 209 208 208 208 207 206 205 206 207 209 210 212 214 215 215 215 217 220 224 228 228 226 225 225 227 229 228 228 231 236 241 241 234 229 232 235 237 239 245 249 257 270 274 272 272 266 261 262
201 205 207 207 209 212 214 213 211 212 213 214 213 212 210 208 208 208 208 207 206 206 207 209 210 212 214 215 216 215 215 216 217 221 227 227 222 220 222 225 225 223 225 229 234 236 234 228 225 227 229 229 234 243 253 272 285 284 280 276 271 267 266
201 205 206 208 211 213 214 213 212 213 214 215 214 212 211 210 210 209 208 208 207 208 210 211 213 214 215 217 217 216 216 215 214 218 224 223 218 215 218 220 220 222 225 228 232 233 229 223 218 217 218 224 237 251 268 289 297 294 287 281 281 283 283
203 206 207 210 213 214 214 213 213 214 215 217 216 214 212 212 211 210 210 209 208 209 210 212 214 216 217 218 218 216 216 216 215 218 223 222 217 215 216 216 217 221 224 228 230 223 213 204 199 199 204 218 235 247 266 298 313 311 301 294 293 293 293
204 206 207 210 212 214 214 214 215 215 216 218 218 216 215 214 213 212 212 212 212 212 212 214 216 218 219 220 220 218 217 217 216 217 221 221 216 216 216 215 215 218 221 223 219 206 194 186 181 180 185 203 221 230 255 300 327 329 325 322 319 314 308
203 204 206 210 213 215 215 215 216 217 218 219 220 219 217 216 215 215 215 215 216 216 217 219 220 220 222 222 222 220 218 219 220 219 220 219 217 217 215 212 212 214 215 211 203 194 186 182 180 181 187 202 215 229 259 296 322 327 325 323 322 319 315
202 204 207 211 215 217 217 217 218 219 220 221 221 220 218 218 217 217 218 218 218 220 221 222 223 223 224 224 223 220 217 219 222 221 219 219 221 220 214 210 208 207 206 200 193 189 186 183 185 194 210 220 226 244 270 289 304 312 312 309 308 305 303
203 206 210 214 217 219 219 218 219 219 219 219 219 220 220 220 220 220 220 221 221 222 223 224 225 225 225 226 225 221 216 218 222 221 218 219 224 223 215 210 207 205 204 198 192 191 190 189 193 206 222 228 238 258 272 281 289 294 295 292 290 290 289
205 208 213 217 219 221 222 222 221 220 220 219 219 221 222 221 221 222 223 223 224 225 225 226 227 227 227 227 227 222 216 216 220 220 217 219 226 226 218 212 207 208 209 202 197 201 202 202 207 217 229 235 244 258 270 279 284 285 284 280 280 283 285
206 209 214 218 220 222 223 222 221 220 220 220 220 222 222 222 223 224 225 225 226 228 229 229 229 229 229 228 228 224 216 214 218 221 221 223 228 228 221 215 213 213 214 209 207 212 215 215 220 228 236 243 251 261 272 280 281 281 279 277 280 286 289
207 210 214 216 218 220 220 220 222 223 223 223 223 224 223 224 225 227 228 228 229 231 232 231 230 230 230 230 229 221 212 208 212 219 222 226 229 230 225 219 217 216 216 216 216 219 222 223 229 235 241 250 258 266 275 279 281 281 279 279 284 290 294
206 210 213 215 217 218 220 222 225 225 226 227 227 226 225 226 227 228 230 231 232 233 233 231 230 230 230 229 223 213 206 206 211 213 217 225 227 227 226 221 219 219 221 224 222 223 225 226 233 240 247 256 261 267 274 280 284 282 280 282 286 290 294
206 210 212 215 217 219 221 223 224 226 229 230 230 229 228 229 230 230 232 233 234 234 234 232 230 227 225 221 214 208 203 205 211 209 214 230 233 230 230 225 219 220 228 231 227 226 226 227 235 245 253 259 262 269 277 281 281 279 278 280 282 286 294
206 210 213 215 218 219 220 222 226 229 231 232 231 231 231 232 232 232 233 234 235 234 233 230 225 221 219 216 214 212 206 203 205 203 209 229 240 239 237 228 221 227 235 233 231 230 228 229 238 250 256 260 265 272 277 277 274 274 275 275 275 284 294
206 209 212 215 217 219 221 224 229 232 233 234 233 232 232 232 232 232 233 234 234 233 231 227 221 219 220 218 218 219 214 203 194 197 204 213 224 233 236 232 234 240 232 228 232 234 230 231 242 252 257 263 269 274 274 273 270 269 269 270 275 285 291
204 208 212 215 217 219 223 227 231 233 233 234 233 233 234 233 233 234 234 234 235 233 229 223 221 223 224 221 220 220 213 198 186 194 201 200 208 222 230 235 242 237 224 225 233 234 232 235 244 252 259 265 270 271 269 267 267 267 268 273 280 286 290
203 207 211 214 217 220 223 227 230 231 232 233 234 235 236 235 235 235 235 235 234 231 226 223 225 227 225 220 216 211 204 198 199 202 200 199 206 216 225 236 241 229 222 227 232 232 233 237 244 251 259 265 266 264 260 260 266 272 277 281 284 287 291
203 207 211 214 218 221 223 227 230 232 235 236 238 238 237 237 236 235 235 234 233 229 226 226 227 226 222 217 211 207 206 212 216 206 196 197 203 209 219 233 232 223 221 226 230 232 234 238 244 251 259 262 260 255 254 259 267 273 279 283 286 289 291
202 207 210 213 217 220 224 230 234 238 242 245 247 248 247 245 242 239 238 236 232 229 228 229 228 224 221 217 212 210 214 218 215 204 196 196 201 209 219 226 222 218 220 225 230 234 236 239 245 252 257 259 256 255 260 266 271 276 282 285 285 286 287
203 206 209 213 218 221 224 226 226 230 239 246 254 257 257 254 251 247 244 240 236 234 232 232 231 227 222 216 211 214 220 220 214 208 204 200 201 209 218 219 217 217 220 224 231 235 238 241 247 252 256 258 258 261 268 275 280 286 288 287 286 285 285
199 201 205 210 211 205 193 181 180 194 199 198 211 228 243 254 255 252 249 244 240 237 234 233 231 226 218 210 209 217 225 224 218 213 207 201 204 214 223 221 217 217 219 224 230 236 239 244 248 253 256 259 262 266 272 279 284 287 287 286 285 285 286
184 188 194 196 193 186 180 185 198 205 198 190 195 222 244 258 261 259 254 248 242 237 234 232 229 225 219 213 213 221 227 224 219 213 205 201 207 222 230 223 218 218 220 225 231 237 243 247 250 254 257 260 265 270 275 280 284 286 285 284 283 284 286
172 177 179 178 179 181 189 201 205 201 196 195 211 241 253 258 262 262 255 247 241 236 232 230 229 228 224 220 220 226 227 221 217 211 203 201 210 227 230 222 220 223 224 228 234 239 245 249 251 254 257 262 269 273 277 281 283 284 283 282 283 284 284
169 171 171 173 178 185 195 204 203 197 197 209 239 255 255 254 258 259 254 247 241 236 233 231 230 229 227 224 226 232 230 221 213 204 199 202 217 237 234 225 225 228 229 233 240 245 251 254 254 254 257 263 271 274 278 281 281 281 282 283 283 283 285
168 169 172 178 185 192 194 192 190 193 206 237 260 256 245 245 253 256 255 251 246 241 236 233 231 232 232 230 231 233 227 216 207 199 199 207 224 241 236 229 230 234 236 240 245 251 258 260 257 254 254 256 261 268 274 277 278 280 282 283 284 287 293
170 169 169 172 175 181 184 185 193 219 249 261 254 238 231 242 255 258 257 255 249 243 239 237 239 241 239 235 233 230 222 213 208 204 206 213 228 242 240 238 240 241 242 247 252 259 266 262 256 252 249 246 251 264 272 273 274 280 284 284 287 293 298
155 150 151 160 168 178 193 219 245 254 252 244 231 227 237 251 260 261 258 254 249 246 245 244 244 242 237 232 230 228 222 218 217 213 209 213 230 249 250 249 248 244 245 249 255 261 265 263 258 253 247 242 248 263 269 269 272 280 283 286 291 295 298
116 117 131 162 180 209 235 246 252 250 241 228 221 234 250 258 265 263 254 247 245 245 245 241 238 236 232 229 231 230 225 220 217 212 209 215 232 253 258 254 249 246 248 252 255 258 262 262 257 250 245 244 250 263 269 269 273 280 283 288 294 297 298
82 78 67 216 250 269 266 265 268 258 239 231 236 249 254 256 258 251 242 239 240 240 237 234 232 231 229 229 231 228 221 217 214 210 211 219 234 254 265 261 253 251 253 254 256 259 262 263 258 249 247 248 252 261 268 269 273 279 283 289 294 297 300
78 69 10 315 302 289 280 277 269 251 238 242 247 247 245 244 245 242 238 239 240 239 236 232 230 229 229 230 227 221 218 217 215 214 216 224 238 257 266 263 259 259 257 257 259 261 261 262 258 249 247 252 255 259 266 268 271 277 282 288 294 297 300
72 59 18 346 323 296 277 260 248 246 249 249 244 238 235 234 234 234 238 241 239 238 237 232 230 229 228 226 223 219 218 218 218 219 222 230 244 255 256 256 260 263 263 264 267 265 259 256 254 248 250 264 268 265 264 265 269 275 282 289 294 297 299
54 44 19 348 315 284 266 251 247 252 254 250 242 233 227 225 223 224 231 236 235 234 233 231 229 228 226 226 225 222 222 224 226 228 233 243 251 253 253 257 263 266 266 268 271 267 259 254 256 258 262 268 267 261 260 263 269 277 285 291 294 296 299
30 22 357 314 283 265 258 257 259 258 254 248 239 228 219 216 215 216 221 227 233 235 235 235 233 231 229 229 228 228 229 231 229 230 241 258 264 261 262 265 266 266 268 270 272 269 261 255 258 263 264 262 257 255 259 266 273 281 288 291 293 296 295
15 359 320 291 277 266 261 261 258 253 249 245 236 221 211 208 206 207 211 217 214 200 192 198 207 211 210 208 210 217 223 224 224 231 248 265 268 265 267 268 267 266 268 270 270 266 258 254 259 265 263 255 251 255 262 270 279 286 290 292 293 292 286
1 326 291 286 281 272 265 260 256 254 251 243 228 210 203 202 197 190 185 173 151 138 141 154 160 156 156 164 183 200 198 201 215 227 235 245 255 262 266 268 267 267 267 265 260 253 251 253 257 259 254 248 251 260 269 278 286 290 291 292 290 284 277
329 294 282 282 277 272 268 262 259 259 251 235 218 203 197 193 184 178 176 169 155 146 148 152 149 143 151 182 225 226 207 201 210 219 228 240 252 261 264 265 264 262 256 248 244 246 251 253 250 248 249 252 259 268 276 284 290 292 291 291 286 279 277
310 293 286 279 275 279 278 268 262 256 241 224 212 201 193 188 182 178 178 175 170 169 173 173 176 200 218 225 231 232 228 227 230 234 240 246 251 255 258 259 256 248 241 238 240 245 250 250 249 251 254 258 265 274 282 289 292 292 291 289 285 282 281
285 279 280 275 276 283 282 273 263 249 231 219 212 202 195 191 188 187 187 187 193 206 216 223 236 237 228 226 232 235 238 240 239 240 242 243 245 248 250 249 245 240 240 242 245 246 248 250 252 254 257 264 273 280 286 291 293 292 291 289 286 285 283
Height
1477 1481 1483 1486 1488 1490 1491 1492 1495 1497 1500 1503 1505 1507 1509 1512 1514 1515 1517 1518 1519 1521 1522 1524 1525 1527 1529 1531 1533 1534 1536 1537 1538 1539 1540 1541 1541 1541 1541 1541 1541 1541 1542 1542 1542 1543 1543 1543 1544 1545 1545 1546 1546 1546 1546 1546 1546 1546 1546 1546 1546 1546 1546
1475 1477 1479 1482 1484 1486 1487 1490 1493 1495 1497 1499 1502 1504 1506 1508 1510 1511 1513 1515 1516 1518 1519 1521 1522 1524 1526 1528 1530 1532 1533 1535 1536 1537 1538 1538 1539 1539 1539 1540 1540 1540 1540 1541 1541 1541 1541 1542 1543 1544 1544 1545 1545 1545 1546 1545 1545 1545 1545 1545 1545 1545 1545
1471 1473 1475 1477 1479 1480 1483 1486 1489 1491 1494 1496 1498 1501 1502 1504 1505 1507 1509 1511 1513 1515 1517 1518 1520 1521 1524 1526 1527 1529 1531 1532 1533 1534 1535 1536 1536 1537 1538 1539 1539 1539 1540 1540 1540 1540 1540 1541 1542 1543 1543 1544 1544 1544 1544 1544 1544 1544 1544 1544 1544 1544 1544
1466 1467 1470 1473 1474 1477 1481 1483 1485 1488 1490 1492 1494 1496 1497 1499 1501 1504 1506 1507 1509 1511 1513 1514 1516 1518 1521 1523 1525 1527 1528 1530 1531 1532 1533 1534 1535 1535 1536 1537 1538 1539 1539 1539 1539 1539 1539 1540 1540 1541 1542 1542 1543 1543 1543 1543 1543 1543 1543 1543 1543 1543 1543
1461 1464 1468 1470 1472 1476 1478 1479 1482 1484 1487 1489 1491 1493 1495 1497 1500 1502 1504 1505 1507 1508 1510 1512 1514 1516 1518 1520 1522 1524 1526 1528 1529 1530 1532 1532 1533 1534 1535 1536 1537 1538 1538 1538 1539 1538 1538 1539 1539 1540 1541 1541 1542 1542 1543 1543 1542 1542 1541 1541 1541 1542 1542
1458 1462 1465 1467 1469 1472 1473 1476 1478 1480 1483 1485 1487 1490 1492 1495 1498 1499 1501 1503 1505 1507 1509 1511 1512 1514 1516 1518 1520 1522 1525 1526 1528 1529 1530 1531 1532 1532 1533 1535 1536 1536 1537 1537 1538 1538 1538 1538 1538 1539 1539 1540 1540 1541 1542 1542 1541 1541 1540 1540 1540 1540 1540
1455 1458 1461 1463 1465 1467 1469 1472 1475 1477 1480 1483 1485 1488 1491 1493 1496 1497 1499 1501 1502 1504 1506 1507 1509 1511 1513 1515 1516 1519 1521 1524 1525 1527 1529 1530 1531 1532 1532 1533 1534 1534 1535 1536 1536 1537 1537 1537 1537 1537 1538 1538 1539 1539 1540 1540 1540 1540 1539 1538 1538 1539 1539
1452 1454 1457 1459 1461 1463 1466 1468 1471 1474 1478 1481 1484 1486 1488 1491 1493 1494 1496 1497 1499 1501 1502 1503 1505 1507 1510 1511 1512 1514 1517 1519 1522 1526 1529 1531 1531 1532 1532 1532 1532 1532 1533 1534 1534 1535 1535 1535 1535 1536 1536 1536 1537 1537 1538 1539 1539 1539 1538 1537 1537 1537 1537
1449 1451 1453 1456 1458 1460 1463 1466 1469 1472 1475 1478 1480 1482 1484 1487 1489 1490 1492 1493 1495 1497 1498 1500 1502 1504 1505 1506 1507 1510 1514 1517 1521 1525 1528 1530 1531 1531 1531 1531 1531 1531 1531 1532 1532 1533 1534 1534 1534 1534 1534 1534 1535 1535 1536 1537 1537 1537 1537 1536 1536 1535 1535
1446 1448 1450 1453 1456 1458 1461 1464 1467 1470 1472 1474 1476 1478 1481 1483 1485 1487 1488 1490 1491 1492 1494 1496 1498 1500 1501 1501 1503 1508 1513 1518 1524 1528 1529 1529 1530 1530 1530 1531 1531 1531 1530 1530 1531 1531 1532 1532 1532 1532 1532 1532 1532 1533 1533 1534 1535 1535 1535 1534 1534 1533 1532
1443 1446 1448 1451 1454 1457 1460 1462 1464 1466 1467 1469 1471 1474 1476 1478 1481 1482 1483 1485 1486 1487 1490 1493 1495 1496 1496 1498 1502 1506 1510 1517 1523 1526 1526 1527 1528 1528 1529 1530 1529 1529 1529 1529 1529 1530 1530 1530 1530 1530 1530 1530 1530 1530 1531 1531 1532 1532 1532 1532 1531 1530 1530
1440 1443 1445 1448 1451 1453 1456 1458 1460 1461 1463 1465 1467 1469 1471 1474 1476 1477 1479 1481 1482 1484 1487 1489 1491 1492 1494 1498 1501 1502 1507 1514 1518 1520 1522 1523 1524 1526 1527 1528 1528 1529 1529 1529 1529 1529 1528 1528 1528 1528 1528 1528 1528 1528 1528 1529 1529 1529 1529 1529 1529 1528 1528
1437 1439 1442 1445 1448 1450 1453 1455 1456 1458 1460 1462 1464 1466 1469 1470 1471 1473 1475 1476 1478 1481 1483 1485 1488 1491 1493 1498 1499 1498 1505 1514 1516 1519 1524 1525 1525 1526 1527 1527 1527 1528 1529 1529 1528 1527 1527 1526 1526 1526 1526 1526 1526 1526 1526 1526 1527 1527 1527 1527 1527 1526 1525
1436 1438 1441 1443 1446 1448 1450 1452 1454 1456 1458 1459 1462 1464 1466 1467 1469 1470 1471 1473 1475 1478 1480 1483 1487 1489 1492 1494 1494 1494 1501 1509 1513 1518 1523 1526 1528 1528 1526 1526 1525 1524 1526 1527 1526 1526 1525 1524 1524 1524 1524 1524 1524 1524 1524 1524 1524 1525 1525 1525 1525 1524 1523
1435 1437 1439 1441 1443 1445 1448 1450 1452 1454 1456 1457 1459 1461 1463 1465 1467 1468 1470 1472 1474 1476 1479 1481 1484 1485 1486 1487 1488 1489 1494 1501 1507 1513 1517 1521 1524 1525 1524 1524 1523 1520 1520 1522 1523 1524 1523 1522 1522 1522 1522 1522 1522 1522 1522 1522 1522 1523 1523 1523 1522 1522 1521
1432 1434 1436 1438 1441 1444 1446 1449 1451 1453 1454 1456 1457 1460 1461 1463 1464 1466 1468 1470 1472 1474 1477 1478 1478 1479 1480 1481 1484 1486 1490 1497 1504 1508 1512 1514 1516 1519 1520 1521 1519 1517 1516 1518 1520 1521 1521 1520 1520 1520 1520 1520 1519 1520 1520 1520 1520 1521 1521 1521 1520 1519 1519
1430 1432 1435 1437 1440 1443 1446 1448 1450 1452 1453 1454 1456 1458 1460 1461 1463 1465 1466 1468 1470 1472 1474 1474 1474 1475 1476 1478 1482 1485 1489 1496 1500 1503 1506 1509 1511 1514 1516 1515 1514 1514 1514 1515 1517 1518 1518 1518 1517 1517 1517 1517 1517 1518 1518 1518 1519 1518 1518 1518 1517 1517 1516
1429 1432 1434 1437 1440 1443 1446 1447 1449 1450 1452 1453 1455 1457 1458 1460 1462 1464 1466 1467 1470 1471 1472 1472 1472 1474 1475 1477 1480 1482 1486 1492 1495 1496 1498 1500 1502 1505 1507 1508 1509 1510 1510 1512 1514 1515 1515 1515 1515 1515 1515 1515 1516 1516 1516 1516 1516 1516 1516 1516 1515 1514 1513
1429 1432 1434 1438 1440 1443 1445 1447 1448 1450 1451 1453 1454 1456 1457 1459 1461 1462 1464 1466 1467 1468 1469 1470 1470 1471 1471 1471 1473 1475 1478 1484 1488 1490 1492 1493 1495 1498 1500 1502 1504 1506 1507 1508 1511 1513 1513 1513 1513 1513 1513 1513 1513 1514 1514 1514 1514 1514 1514 1513 1513 1512 1511
1430 1433 1436 1439 1441 1443 1445 1447 1448 1450 1451 1452 1454 1454 1456 1457 1457 1459 1460 1462 1463 1464 1465 1466 1466 1466 1466 1467 1468 1471 1473 1477 1481 1485 1487 1488 1490 1493 1496 1499 1501 1503 1505 1506 1509 1510 1510 1510 1510 1511 1511 1511 1511 1512 1512 1512 1512 1512 1512 1511 1511 1510 1509
1431 1434 1437 1439 1442 1443 1445 1447 1448 1449 1450 1451 1453 1453 1454 1454 1454 1455 1456 1457 1459 1460 1461 1462 1462 1463 1465 1466 1467 1470 1472 1474 1477 1479 1481 1484 1489 1493 1496 1498 1500 1501 1502 1503 1505 1506 1507 1507 1508 1508 1509 1509 1509 1509 1509 1509 1510 1509 1509 1508 1508 1507 1506
1431 1434 1437 1440 1442 1443 1445 1447 1448 1449 1450 1450 1451 1452 1452 1452 1452 1453 1453 1454 1456 1457 1457 1459 1459 1460 1461 1462 1464 1467 1469 1471 1474 1477 1480 1485 1491 1495 1496 1497 1498 1498 1499 1500 1502 1503 1504 1505 1505 1506 1507 1507 1507 1507 1507 1507 1507 1507 1506 1506 1505 1504 1503
1431 1435 1437 1440 1442 1444 1446 1447 1448 1449 1449 1450 1450 1451 1450 1450 1450 1450 1451 1452 1453 1454 1455 1455 1456 1456 1457 1459 1462 1465 1467 1469 1473 1478 1483 1488 1491 1493 1494 1495 1495 1496 1497 1498 1499 1500 1501 1502 1502 1503 1504 1505 1505 1505 1505 1505 1505 1505 1504 1503 1502 1501 1501
1432 1435 1437 1439 1442 1444 1445 1447 1447 1448 1449 1449 1450 1450 1449 1448 1448 1448 1449 1449 1450 1451 1452 1452 1453 1454 1455 1456 1459 1463 1466 1468 1472 1478 1483 1487 1489 1490 1491 1492 1493 1494 1495 1496 1496 1498 1499 1500 1501 1502 1502 1502 1502 1502 1502 1503 1503 1502 1501 1501 1500 1499 1499
1431 1434 1437 1439 1442 1444 1445 1446 1447 1447 1448 1448 1448 1448 1447 1447 1446 1446 1447 1447 1448 1449 1449 1450 1451 1452 1454 1455 1457 1461 1464 1468 1472 1477 1481 1483 1485 1486 1488 1489 1491 1492 1493 1494 1495 1496 1497 1497 1498 1499 1499 1499 1500 1500 1500 1501 1501 1500 1499 1499 1498 1497 1496
1432 1434 1436 1439 1442 1445 1446 1446 1446 1446 1446 1446 1446 1446 1446 1446 1445 1445 1445 1445 1446 1446 1446 1449 1451 1452 1453 1455 1457 1461 1464 1466 1470 1475 1478 1480 1482 1484 1485 1487 1489 1490 1490 1492 1493 1494 1495 1494 1494 1495 1495 1495 1496 1497 1498 1498 1498 1497 1497 1496 1496 1495 1494
1434 1435 1437 1440 1443 1445 1446 1445 1445 1444 1444 1445 1445 1445 1445 1445 1444 1444 1443 1443 1443 1444 1447 1450 1452 1453 1454 1456 1458 1461 1463 1465 1468 1472 1475 1478 1480 1482 1484 1485 1485 1486 1487 1489 1491 1491 1490 1489 1490 1491 1491 1492 1493 1494 1495 1495 1495 1495 1494 1494 1493 1493 1492
1436 1438 1440 1442 1444 1444 1444 1444 1443 1443 1443 1443 1444 1444 1444 1443 1443 1442 1442 1442 1443 1446 1449 1451 1452 1453 1455 1456 1458 1460 1462 1464 1468 1471 1474 1476 1478 1480 1481 1482 1482 1482 1484 1485 1486 1486 1485 1485 1486 1488 1488 1489 1491 1492 1492 1492 1492 1492 1491 1491 1491 1490 1489
1438 1441 1443 1444 1444 1444 1443 1443 1442 1442 1442 1443 1443 1443 1443 1442 1441 1441 1442 1443 1445 1448 1450 1451 1452 1453 1455 1456 1458 1459 1461 1464 1467 1470 1472 1474 1476 1478 1479 1479 1479 1480 1481 1482 1482 1482 1481 1481 1482 1484 1485 1486 1488 1489 1489 1489 1489 1489 1489 1489 1488 1487 1486
1440 1442 1443 1443 1444 1443 1443 1443 1442 1442 1442 1442 1442 1442 1442 1441 1441 1442 1443 1444 1445 1447 1449 1450 1451 1453 1454 1455 1457 1459 1461 1463 1466 1468 1469 1471 1474 1477 1477 1477 1476 1477 1477 1478 1479 1479 1478 1478 1479 1480 1482 1484 1485 1486 1486 1486 1486 1486 1487 1486 1485 1484 1483
1439 1440 1441 1442 1443 1443 1443 1443 1442 1442 1442 1441 1441 1441 1440 1440 1440 1442 1443 1444 1445 1446 1448 1449 1451 1452 1453 1455 1456 1458 1460 1462 1464 1466 1467 1470 1473 1474 1474 1473 1474 1474 1475 1475 1476 1476 1475 1476 1477 1478 1479 1481 1482 1482 1483 1483 1484 1484 1484 1483 1482 1481 1480
1437 1438 1439 1440 1442 1443 1443 1443 1442 1441 1441 1440 1440 1439 1438 1439 1440 1441 1443 1444 1445 1446 1448 1449 1450 1452 1453 1455 1457 1459 1461 1462 1465 1467 1467 1469 1470 1471 1471 1471 1471 1472 1472 1472 1473 1473 1472 1474 1475 1476 1477 1479 1479 1480 1481 1481 1481 1482 1481 1480 1479 1478 1477
1436 1437 1439 1441 1442 1442 1442 1441 1441 1441 1439 1439 1438 1437 1438 1439 1440 1441 1443 1444 1446 1447 1448 1450 1451 1452 1454 1456 1458 1460 1462 1463 1465 1466 1466 1467 1468 1469 1469 1470 1470 1470 1470 1470 1471 1471 1471 1472 1474 1475 1476 1477 1477 1478 1479 1479 1479 1479 1478 1477 1476 1476 1475
1437 1438 1440 1441 1441 1441 1441 1440 1440 1439 1438 1437 1436 1436 1437 1438 1439 1441 1443 1444 1445 1447 1448 1450 1452 1453 1455 1456 1457 1459 1461 1462 1463 1464 1465 1466 1467 1467 1467 1467 1467 1468 1468 1468 1469 1469 1470 1472 1473 1474 1475 1475 1476 1476 1477 1477 1476 1476 1475 1475 1474 1474 1473
1437 1439 1440 1440 1441 1441 1440 1439 1438 1437 1436 1435 1435 1436 1437 1437 1439 1441 1441 1442 1443 1445 1446 1448 1450 1452 1454 1456 1458 1459 1460 1461 1462 1463 1463 1464 1464 1464 1465 1465 1465 1466 1466 1466 1467 1468 1469 1471 1472 1473 1473 1474 1474 1475 1475 1475 1474 1473 1473 1473 1472 1472 1471
1437 1438 1438 1439 1439 1439 1438 1437 1436 1435 1435 1435 1435 1435 1436 1437 1438 1439 1440 1441 1442 1443 1444 1446 1447 1449 1452 1455 1458 1459 1459 1460 1460 1460 1461 1461 1462 1463 1463 1464 1464 1464 1465 1466 1467 1468 1469 1469 1470 1471 1472 1472 1473 1473 1473 1472 1472 1471 1471 1470 1470 1469 1469
1436 1436 1437 1437 1438 1437 1436 1435 1435 1434 1434 1434 1434 1435 1436 1437 1438 1439 1440 1441 1442 1443 1445 1447 1448 1449 1450 1453 1456 1457 1457 1458 1459 1459 1460 1460 1461 1461 1462 1462 1463 1464 1464 1465 1466 1466 1467 1467 1468 1469 1469 1470 1470 1470 1470 1470 1469 1469 1468 1468 1467 1467 1466
1435 1435 1436 1436 1435 1435 1434 1434 1433 1434 1434 1434 1434 1435 1435 1436 1437 1439 1440 1441 1442 1444 1446 1447 1447 1448 1450 1452 1454 1455 1456 1457 1457 1458 1459 1459 1459 1460 1461 1461 1462 1462 1463 1464 1464 1465 1465 1466 1466 1466 1467 1467 1468 1468 1468 1468 1467 1467 1466 1466 1465 1465 1464